Time,TemperatureF,DewpointF,PressureIn,WindDirection,WindDirectionDegrees,WindSpeedMPH,WindSpeedGustMPH,Humidity,HourlyPrecipIn,Conditions,Clouds,dailyrainin,SolarRadiationWatts/m^2,SoftwareType,DateUTC
2013-02-07 00:04:00,30.2,27.0,30.17,NNW,342,0.0,0.0,89,0.00,,,0.00,0,weatherlink.com 1.10,2013-02-07 00:04:00,
2013-02-07 00:19:00,29.8,27.0,30.17,NNW,342,0.0,2.0,90,0.00,,,0.00,0,weatherlink.com 1.10,2013-02-07 00:19:00,
2013-02-07 00:34:00,29.9,27.0,30.17,NNW,342,0.0,3.0,90,0.00,,,0.00,0,weatherlink.com 1.10,2013-02-07 00:34:00,
2013-02-07 00:49:00,29.7,27.0,30.17,NNW,342,2.0,2.0,90,0.00,,,0.00,0,weatherlink.com 1.10,2013-02-07 00:49:00,
2013-02-07 01:04:00,30.3,28.0,30.16,NNW,342,2.0,4.0,91,0.00,,,0.00,0,weatherlink.com 1.10,2013-02-07 01:04:00,
2013-02-07 01:19:00,30.4,28.0,30.16,NNW,342,2.0,3.0,91,0.00,,,0.00,0,weatherlink.com 1.10,2013-02-07 01:19:00,
2013-02-07 01:34:00,30.5,28.0,30.16,NNW,342,1.0,3.0,91,0.00,,,0.00,0,weatherlink.com 1.10,2013-02-07 01:34:00,
2013-02-07 01:49:00,29.8,28.0,30.15,NNW,342,0.0,2.0,91,0.00,,,0.00,0,weatherlink.com 1.10,2013-02-07 01:49:00,
2013-02-07 02:04:00,30.0,28.0,30.15,NNW,342,0.0,2.0,91,0.00,,,0.00,0,weatherlink.com 1.10,2013-02-07 02:04:00,
2013-02-07 02:19:00,29.4,27.0,30.15,NNW,342,2.0,2.0,91,0.00,,,0.00,0,weatherlink.com 1.10,2013-02-07 02:19:00,
2013-02-07 02:34:00,29.5,28.0,30.15,NNW,342,2.0,4.0,92,0.00,,,0.00,0,weatherlink.com 1.10,2013-02-07 02:34:00,
2013-02-07 02:49:00,30.7,29.0,30.14,NNW,342,4.0,4.0,92,0.00,,,0.00,0,weatherlink.com 1.10,2013-02-07 02:49:00,
2013-02-07 03:04:00,31.7,30.0,30.14,NNW,342,2.0,3.0,92,0.00,,,0.00,0,weatherlink.com 1.10,2013-02-07 03:04:00,
2013-02-07 03:19:00,31.9,30.0,30.14,NNW,327,0.0,3.0,91,0.00,,,0.00,0,weatherlink.com 1.10,2013-02-07 03:19:00,
2013-02-07 03:34:00,31.3,29.0,30.13,NNW,327,0.0,0.0,90,0.00,,,0.00,0,weatherlink.com 1.10,2013-02-07 03:34:00,
2013-02-07 03:49:00,30.9,28.0,30.13,NNW,327,0.0,1.0,90,0.00,,,0.00,0,weatherlink.com 1.10,2013-02-07 03:49:00,
2013-02-07 04:04:00,29.9,27.0,30.13,NNW,327,1.0,1.0,90,0.00,,,0.00,0,weatherlink.com 1.10,2013-02-07 04:04:00,
2013-02-07 04:19:00,29.4,27.0,30.13,NNW,327,0.0,2.0,91,0.00,,,0.00,0,weatherlink.com 1.10,2013-02-07 04:19:00,
2013-02-07 04:34:00,29.1,27.0,30.13,NNW,327,0.0,0.0,91,0.00,,,0.00,0,weatherlink.com 1.10,2013-02-07 04:34:00,
2013-02-07 04:49:00,28.8,27.0,30.13,NNW,327,0.0,0.0,91,0.00,,,0.00,0,weatherlink.com 1.10,2013-02-07 04:49:00,
2013-02-07 05:04:00,28.5,26.0,30.13,NNW,327,0.0,1.0,91,0.00,,,0.00,0,weatherlink.com 1.10,2013-02-07 05:04:00,
2013-02-07 05:19:00,28.9,27.0,30.13,NNW,327,0.0,1.0,92,0.00,,,0.00,0,weatherlink.com 1.10,2013-02-07 05:19:00,
2013-02-07 05:34:00,30.2,29.0,30.13,NNW,327,0.0,2.0,93,0.00,,,0.00,0,weatherlink.com 1.10,2013-02-07 05:34:00,
2013-02-07 05:49:00,30.3,28.0,30.12,NNW,327,0.0,0.0,92,0.00,,,0.00,0,weatherlink.com 1.10,2013-02-07 05:49:00,
2013-02-07 06:05:00,29.9,28.0,30.12,NNW,327,0.0,0.0,92,0.00,,,0.00,0,weatherlink.com 1.10,2013-02-07 06:05:00,
2013-02-07 06:19:00,30.0,28.0,30.11,NNW,327,0.0,3.0,92,0.00,,,0.00,0,weatherlink.com 1.10,2013-02-07 06:19:00,
2013-02-07 06:34:00,30.3,28.0,30.11,North,350,0.0,4.0,92,0.00,,,0.00,0,weatherlink.com 1.10,2013-02-07 06:34:00,
2013-02-07 06:49:00,30.8,29.0,30.11,North,350,0.0,1.0,92,0.00,,,0.00,0,weatherlink.com 1.10,2013-02-07 06:49:00,
2013-02-07 07:05:00,31.2,29.0,30.11,North,350,1.0,3.0,92,0.00,,,0.00,0,weatherlink.com 1.10,2013-02-07 07:05:00,
2013-02-07 07:20:00,31.6,30.0,30.10,North,350,1.0,3.0,92,0.00,,,0.00,0,weatherlink.com 1.10,2013-02-07 07:20:00,
2013-02-07 07:35:00,31.8,30.0,30.10,North,350,0.0,2.0,91,0.00,,,0.00,0,weatherlink.com 1.10,2013-02-07 07:35:00,
2013-02-07 07:49:00,31.7,29.0,30.09,North,350,0.0,1.0,91,0.00,,,0.00,11,weatherlink.com 1.10,2013-02-07 07:49:00,
2013-02-07 08:04:00,31.7,29.0,30.09,North,350,1.0,2.0,91,0.00,,,0.00,7,weatherlink.com 1.10,2013-02-07 08:04:00,
2013-02-07 08:19:00,31.9,30.0,30.09,North,350,0.0,2.0,91,0.00,,,0.00,12,weatherlink.com 1.10,2013-02-07 08:19:00,
2013-02-07 08:34:00,32.1,30.0,30.09,North,350,0.0,2.0,91,0.00,,,0.00,19,weatherlink.com 1.10,2013-02-07 08:34:00,
2013-02-07 08:49:00,32.5,30.0,30.09,North,350,1.0,2.0,90,0.00,,,0.00,40,weatherlink.com 1.10,2013-02-07 08:49:00,
2013-02-07 09:05:00,32.6,30.0,30.08,North,350,0.0,2.0,90,0.00,,,0.00,54,weatherlink.com 1.10,2013-02-07 09:05:00,
2013-02-07 09:20:00,33.1,31.0,30.08,North,350,0.0,2.0,91,0.00,,,0.00,72,weatherlink.com 1.10,2013-02-07 09:20:00,
2013-02-07 09:35:00,33.6,31.0,30.08,WNW,298,0.0,2.0,90,0.00,,,0.00,63,weatherlink.com 1.10,2013-02-07 09:35:00,
2013-02-07 09:50:00,33.6,31.0,30.08,WNW,298,0.0,3.0,90,0.00,,,0.00,65,weatherlink.com 1.10,2013-02-07 09:50:00,
2013-02-07 10:05:00,33.9,31.0,30.08,WNW,297,0.0,2.0,90,0.00,,,0.00,67,weatherlink.com 1.10,2013-02-07 10:05:00,
2013-02-07 10:20:00,34.3,32.0,30.07,WNW,297,1.0,2.0,90,0.00,,,0.00,84,weatherlink.com 1.10,2013-02-07 10:20:00,
2013-02-07 10:35:00,34.9,32.0,30.07,WNW,298,0.0,2.0,90,0.00,,,0.00,91,weatherlink.com 1.10,2013-02-07 10:35:00,
2013-02-07 10:50:00,35.3,33.0,30.06,WNW,297,2.0,2.0,90,0.00,,,0.00,104,weatherlink.com 1.10,2013-02-07 10:50:00,
2013-02-07 11:05:00,35.8,33.0,30.06,WNW,297,0.0,2.0,90,0.00,,,0.00,105,weatherlink.com 1.10,2013-02-07 11:05:00,
2013-02-07 11:20:00,36.1,34.0,30.06,WNW,297,0.0,2.0,90,0.00,,,0.00,111,weatherlink.com 1.10,2013-02-07 11:20:00,
2013-02-07 11:35:00,36.4,34.0,30.05,WNW,297,0.0,2.0,90,0.00,,,0.00,148,weatherlink.com 1.10,2013-02-07 11:35:00,
2013-02-07 11:50:00,36.6,34.0,30.05,WNW,297,2.0,4.0,90,0.00,,,0.00,125,weatherlink.com 1.10,2013-02-07 11:50:00,
2013-02-07 12:05:00,36.8,34.0,30.05,WNW,297,2.0,3.0,90,0.00,,,0.00,90,weatherlink.com 1.10,2013-02-07 12:05:00,
2013-02-07 12:20:00,36.8,34.0,30.03,WNW,297,0.0,3.0,90,0.00,,,0.00,90,weatherlink.com 1.10,2013-02-07 12:20:00,
2013-02-07 12:35:00,36.9,34.0,30.03,WNW,296,1.0,3.0,90,0.00,,,0.00,109,weatherlink.com 1.10,2013-02-07 12:35:00,
2013-02-07 12:50:00,36.9,35.0,30.02,WNW,296,1.0,2.0,91,0.00,,,0.00,69,weatherlink.com 1.10,2013-02-07 12:50:00,
2013-02-07 13:05:00,37.2,35.0,30.02,WNW,296,0.0,1.0,91,0.00,,,0.00,69,weatherlink.com 1.10,2013-02-07 13:05:00,
2013-02-07 13:20:00,37.3,35.0,30.01,WNW,296,0.0,1.0,91,0.00,,,0.00,67,weatherlink.com 1.10,2013-02-07 13:20:00,
2013-02-07 13:36:00,37.3,35.0,30.01,WNW,296,0.0,1.0,91,0.00,,,0.00,51,weatherlink.com 1.10,2013-02-07 13:36:00,
2013-02-07 13:50:00,37.3,35.0,30.01,WNW,296,0.0,1.0,91,0.00,,,0.00,60,weatherlink.com 1.10,2013-02-07 13:50:00,
2013-02-07 14:05:00,37.1,35.0,30.00,WNW,296,1.0,3.0,91,0.00,,,0.00,56,weatherlink.com 1.10,2013-02-07 14:05:00,
2013-02-07 14:21:00,37.0,35.0,30.00,WNW,296,3.0,6.0,92,0.00,,,0.00,67,weatherlink.com 1.10,2013-02-07 14:21:00,
2013-02-07 14:36:00,36.8,35.0,30.00,WNW,297,3.0,6.0,92,0.00,,,0.00,58,weatherlink.com 1.10,2013-02-07 14:36:00,
2013-02-07 14:50:00,36.8,35.0,30.00,WNW,297,4.0,5.0,93,0.00,,,0.00,47,weatherlink.com 1.10,2013-02-07 14:50:00,
2013-02-07 15:06:00,36.6,35.0,30.00,WNW,297,2.0,5.0,93,0.00,,,0.00,44,weatherlink.com 1.10,2013-02-07 15:06:00,
2013-02-07 15:21:00,36.5,35.0,30.01,WNW,299,2.0,6.0,93,0.00,,,0.00,40,weatherlink.com 1.10,2013-02-07 15:21:00,
2013-02-07 15:35:00,36.4,35.0,30.01,WNW,299,3.0,6.0,93,0.00,,,0.00,32,weatherlink.com 1.10,2013-02-07 15:35:00,
2013-02-07 15:50:00,36.2,34.0,30.01,NNW,334,3.0,5.0,93,0.00,,,0.00,40,weatherlink.com 1.10,2013-02-07 15:50:00,
2013-02-07 16:05:00,36.0,34.0,30.02,NNW,333,4.0,6.0,93,0.00,,,0.00,30,weatherlink.com 1.10,2013-02-07 16:05:00,
2013-02-07 16:21:00,35.7,34.0,30.02,NNW,330,4.0,6.0,93,0.00,,,0.00,19,weatherlink.com 1.10,2013-02-07 16:21:00,
2013-02-07 16:35:00,35.5,34.0,30.02,NNW,329,2.0,6.0,93,0.00,,,0.00,9,weatherlink.com 1.10,2013-02-07 16:35:00,
2013-02-07 16:50:00,35.2,33.0,30.02,NNW,329,1.0,3.0,93,0.00,,,0.00,5,weatherlink.com 1.10,2013-02-07 16:50:00,
2013-02-07 17:05:00,34.9,33.0,30.02,NNW,329,0.0,1.0,93,0.00,,,0.00,0,weatherlink.com 1.10,2013-02-07 17:05:00,
2013-02-07 17:21:00,34.6,33.0,30.02,NNW,329,0.0,2.0,93,0.00,,,0.00,0,weatherlink.com 1.10,2013-02-07 17:21:00,
2013-02-07 17:36:00,34.5,33.0,30.03,NNW,329,1.0,3.0,93,0.00,,,0.00,0,weatherlink.com 1.10,2013-02-07 17:36:00,
2013-02-07 17:50:00,34.5,33.0,30.04,NNW,329,0.0,2.0,94,0.00,,,0.00,0,weatherlink.com 1.10,2013-02-07 17:50:00,
2013-02-07 18:05:00,34.5,33.0,30.04,NNW,329,2.0,2.0,94,0.00,,,0.00,0,weatherlink.com 1.10,2013-02-07 18:05:00,
2013-02-07 18:21:00,34.7,33.0,30.05,NNW,329,1.0,1.0,94,0.00,,,0.00,0,weatherlink.com 1.10,2013-02-07 18:21:00,
2013-02-07 18:36:00,34.8,33.0,30.05,NNW,329,1.0,3.0,94,0.00,,,0.00,0,weatherlink.com 1.10,2013-02-07 18:36:00,
2013-02-07 18:51:00,34.6,33.0,30.06,NNW,329,0.0,5.0,94,0.00,,,0.00,0,weatherlink.com 1.10,2013-02-07 18:51:00,
2013-02-07 19:06:00,34.2,33.0,30.06,NNW,329,1.0,3.0,94,0.00,,,0.00,0,weatherlink.com 1.10,2013-02-07 19:06:00,
2013-02-07 19:21:00,34.0,33.0,30.06,NNW,329,1.0,2.0,94,0.00,,,0.00,0,weatherlink.com 1.10,2013-02-07 19:21:00,
2013-02-07 19:36:00,33.8,32.0,30.07,NNW,329,2.0,3.0,94,0.00,,,0.00,0,weatherlink.com 1.10,2013-02-07 19:36:00,
2013-02-07 19:51:00,33.7,33.0,30.06,NNW,329,2.0,2.0,95,0.00,,,0.00,0,weatherlink.com 1.10,2013-02-07 19:51:00,
2013-02-07 20:06:00,33.9,33.0,30.07,NNW,329,0.0,4.0,95,0.00,,,0.00,0,weatherlink.com 1.10,2013-02-07 20:06:00,
2013-02-07 20:21:00,33.7,33.0,30.07,NNW,329,0.0,1.0,95,0.00,,,0.00,0,weatherlink.com 1.10,2013-02-07 20:21:00,
2013-02-07 20:36:00,33.7,33.0,30.08,NNW,329,0.0,2.0,95,0.00,,,0.00,0,weatherlink.com 1.10,2013-02-07 20:36:00,
2013-02-07 20:51:00,33.8,33.0,30.08,NNW,329,2.0,4.0,95,0.00,,,0.00,0,weatherlink.com 1.10,2013-02-07 20:51:00,
2013-02-07 21:06:00,33.8,33.0,30.08,NNW,329,1.0,4.0,95,0.00,,,0.00,0,weatherlink.com 1.10,2013-02-07 21:06:00,
2013-02-07 21:21:00,33.7,33.0,30.08,NNW,329,3.0,3.0,95,0.00,,,0.00,0,weatherlink.com 1.10,2013-02-07 21:21:00,
2013-02-07 21:36:00,33.5,32.0,30.08,NNW,329,1.0,2.0,95,0.00,,,0.00,0,weatherlink.com 1.10,2013-02-07 21:36:00,
2013-02-07 21:51:00,33.4,32.0,30.08,NNW,329,1.0,2.0,95,0.00,,,0.00,0,weatherlink.com 1.10,2013-02-07 21:51:00,
2013-02-07 22:06:00,33.4,32.0,30.08,NNW,329,0.0,3.0,94,0.00,,,0.00,0,weatherlink.com 1.10,2013-02-07 22:06:00,
2013-02-07 22:21:00,33.3,32.0,30.09,NNW,329,0.0,2.0,95,0.00,,,0.00,0,weatherlink.com 1.10,2013-02-07 22:21:00,
2013-02-07 22:36:00,33.5,32.0,30.09,NNW,329,1.0,3.0,94,0.00,,,0.00,0,weatherlink.com 1.10,2013-02-07 22:36:00,
2013-02-07 22:51:00,33.5,32.0,30.09,NNW,329,0.0,1.0,94,0.00,,,0.00,0,weatherlink.com 1.10,2013-02-07 22:51:00,
2013-02-07 23:06:00,33.4,32.0,30.09,NNW,329,0.0,0.0,94,0.00,,,0.00,0,weatherlink.com 1.10,2013-02-07 23:06:00,
2013-02-07 23:21:00,33.4,32.0,30.09,NNW,329,1.0,3.0,94,0.00,,,0.00,0,weatherlink.com 1.10,2013-02-07 23:21:00,
2013-02-07 23:36:00,33.4,32.0,30.09,NNW,329,0.0,1.0,94,0.00,,,0.00,0,weatherlink.com 1.10,2013-02-07 23:36:00,
2013-02-07 23:51:00,33.2,32.0,30.09,NNW,329,0.0,0.0,94,0.00,,,0.00,0,weatherlink.com 1.10,2013-02-07 23:51:00,